Location: Brachbach
(49.1847°N, 9.7240°E)
Time: 09:47:06
(UTC+00:00)

FENGYUN 3A - Pass Details

Date: 19 August 2024
Orbit: 821 x 834 km, 98.6° (Epoch: 16 September)

Event Time Altitude Azimuth Distance (km) Brightness Sun altitude
Rises 02:02:21 0° 13° (NNE) 3,394 7.9 -19.1°
Reaches altitude 10° 02:04:43 10° 12° (NNE) 2,454 7.0 -18.8°
Maximum altitude 02:10:09 75° 288° (WNW) 864 3.6 -18.2°
Enters shadow 02:12:54 30° 208° (SSW) 1,450 4.4 -17.9°
